Time,TemperatureF,DewpointF,PressureIn,WindDirection,WindDirectionDegrees,WindSpeedMPH,WindSpeedGustMPH,Humidity,HourlyPrecipIn,Conditions,Clouds,dailyrainin,SoftwareType,DateUTC
2013-11-04 00:00:00,31.9,21.1,30.33,North,0,0.0,6.0,64,0.00,,---,-99.99,VWS V14.01,2013-11-04 05:00:00,
2013-11-04 00:01:00,32.1,21.3,30.31,NNE,17,0.0,0.0,64,0.00,,---,0.00,VWS V14.01,2013-11-04 05:01:00,
2013-11-04 00:02:00,32.2,21.4,30.31,North,0,0.0,0.0,64,0.00,,---,0.00,VWS V14.01,2013-11-04 05:02:00,
2013-11-04 00:03:00,32.2,21.4,30.31,North,0,0.0,0.0,64,0.00,,---,0.00,VWS V14.01,2013-11-04 05:03:00,
2013-11-04 00:08:00,32.1,21.3,30.31,NE,34,0.0,0.0,64,0.00,,---,0.00,VWS V14.01,2013-11-04 05:08:00,
2013-11-04 00:13:00,31.9,21.1,30.31,North,359,0.0,0.0,64,0.00,,---,0.00,VWS V14.01,2013-11-04 05:13:00,
2013-11-04 00:18:00,31.9,21.1,30.31,North,359,0.0,0.0,64,0.00,,---,0.00,VWS V14.01,2013-11-04 05:18:00,
2013-11-04 00:23:00,31.9,21.1,30.31,North,359,0.0,0.0,64,0.00,,---,0.00,VWS V14.01,2013-11-04 05:23:00,
2013-11-04 00:28:00,31.9,21.1,30.31,North,0,0.0,0.0,64,0.00,,---,0.00,VWS V14.01,2013-11-04 05:28:00,
2013-11-04 00:33:00,31.9,21.1,30.32,NNE,28,0.0,1.0,64,0.00,,---,0.00,VWS V14.01,2013-11-04 05:33:00,
2013-11-04 00:38:00,31.9,21.1,30.32,North,0,0.0,1.0,64,0.00,,---,0.00,VWS V14.01,2013-11-04 05:38:00,
2013-11-04 00:43:00,31.9,21.1,30.32,NNW,342,0.0,1.0,64,0.00,,---,0.00,VWS V14.01,2013-11-04 05:43:00,
2013-11-04 00:48:00,31.9,21.1,30.33,NNE,17,3.0,3.0,64,0.00,,---,0.00,VWS V14.01,2013-11-04 05:48:00,
2013-11-04 00:53:00,31.9,21.1,30.33,North,8,0.0,5.0,64,0.00,,---,0.00,VWS V14.01,2013-11-04 05:53:00,
2013-11-04 00:58:00,31.9,20.8,30.33,NNE,16,6.0,6.0,63,0.00,,---,0.00,VWS V14.01,2013-11-04 05:58:00,
2013-11-04 01:00:00,31.5,20.7,30.36,North,0,1.0,5.0,64,0.00,,---,-99.99,VWS V14.01,2013-11-04 06:00:00,
2013-11-04 01:03:00,31.9,21.1,30.33,North,354,0.0,0.0,64,0.00,,---,0.00,VWS V14.01,2013-11-04 06:03:00,
2013-11-04 01:08:00,31.8,21.0,30.33,North,1,0.0,0.0,64,0.00,,---,0.00,VWS V14.01,2013-11-04 06:08:00,
2013-11-04 01:13:00,31.8,21.0,30.33,North,1,0.0,0.0,64,0.00,,---,0.00,VWS V14.01,2013-11-04 06:13:00,
2013-11-04 01:18:00,31.6,20.8,30.34,North,0,0.0,3.0,64,0.00,,---,0.00,VWS V14.01,2013-11-04 06:18:00,
2013-11-04 01:23:00,31.6,20.8,30.34,North,6,0.0,3.0,64,0.00,,---,0.00,VWS V14.01,2013-11-04 06:23:00,
2013-11-04 01:28:00,31.5,20.7,30.34,North,3,0.0,3.0,64,0.00,,---,0.00,VWS V14.01,2013-11-04 06:28:00,
2013-11-04 01:33:00,31.5,20.7,30.35,North,359,0.0,5.0,64,0.00,,---,0.00,VWS V14.01,2013-11-04 06:33:00,
2013-11-04 01:38:00,31.5,20.7,30.35,NNW,343,0.0,5.0,64,0.00,,---,0.00,VWS V14.01,2013-11-04 06:38:00,
2013-11-04 01:43:00,31.5,20.7,30.35,NNE,13,5.0,5.0,64,0.00,,---,0.00,VWS V14.01,2013-11-04 06:43:00,
2013-11-04 01:48:00,31.5,20.7,30.35,NNE,13,5.0,5.0,64,0.00,,---,0.00,VWS V14.01,2013-11-04 06:48:00,
2013-11-04 01:53:00,31.5,20.7,30.35,North,359,0.0,5.0,64,0.00,,---,0.00,VWS V14.01,2013-11-04 06:53:00,
2013-11-04 01:58:00,31.5,20.7,30.35,North,0,0.0,5.0,64,0.00,,---,0.00,VWS V14.01,2013-11-04 06:58:00,
2013-11-04 02:00:00,30.3,20.7,30.38,North,0,0.0,3.0,67,0.00,,---,-99.99,VWS V14.01,2013-11-04 07:00:00,
2013-11-04 02:03:00,31.5,20.7,30.36,North,359,1.0,1.0,64,0.00,,---,0.00,VWS V14.01,2013-11-04 07:03:00,
2013-11-04 02:08:00,31.5,20.7,30.36,North,0,0.0,1.0,64,0.00,,---,0.00,VWS V14.01,2013-11-04 07:08:00,
2013-11-04 02:13:00,31.5,20.7,30.36,North,0,0.0,1.0,64,0.00,,---,0.00,VWS V14.01,2013-11-04 07:13:00,
2013-11-04 02:18:00,30.7,20.0,30.36,NNE,18,0.0,1.0,64,0.00,,---,0.00,VWS V14.01,2013-11-04 07:18:00,
2013-11-04 02:23:00,30.7,20.0,30.36,North,6,0.0,1.0,64,0.00,,---,0.00,VWS V14.01,2013-11-04 07:23:00,
2013-11-04 02:28:00,30.6,19.9,30.37,North,1,0.0,1.0,64,0.00,,---,0.00,VWS V14.01,2013-11-04 07:28:00,
2013-11-04 02:33:00,30.6,20.6,30.37,NNE,31,0.0,3.0,66,0.00,,---,0.00,VWS V14.01,2013-11-04 07:33:00,
2013-11-04 02:38:00,30.6,21.0,30.37,North,10,0.0,3.0,67,0.00,,---,0.00,VWS V14.01,2013-11-04 07:38:00,
2013-11-04 02:44:00,30.6,21.0,30.38,North,354,0.0,3.0,67,0.00,,---,0.00,VWS V14.01,2013-11-04 07:44:00,
2013-11-04 02:49:00,30.6,21.0,30.38,North,8,2.0,3.0,67,0.00,,---,0.00,VWS V14.01,2013-11-04 07:49:00,
2013-11-04 02:54:00,30.6,21.0,30.38,North,11,0.0,3.0,67,0.00,,---,0.00,VWS V14.01,2013-11-04 07:54:00,
2013-11-04 02:59:00,30.3,20.7,30.38,North,0,0.0,3.0,67,0.00,,---,0.00,VWS V14.01,2013-11-04 07:59:00,
2013-11-04 03:00:00,29.7,19.8,30.41,North,8,0.0,2.0,66,0.00,,---,-99.99,VWS V14.01,2013-11-04 08:00:00,
2013-11-04 03:04:00,30.3,20.7,30.38,North,0,0.0,0.0,67,0.00,,---,0.00,VWS V14.01,2013-11-04 08:04:00,
2013-11-04 03:09:00,30.3,20.7,30.38,North,6,0.0,1.0,67,0.00,,---,0.00,VWS V14.01,2013-11-04 08:09:00,
2013-11-04 03:14:00,30.1,20.5,30.39,North,0,0.0,1.0,67,0.00,,---,0.00,VWS V14.01,2013-11-04 08:14:00,
2013-11-04 03:19:00,30.1,20.5,30.39,North,6,0.0,1.0,67,0.00,,---,0.00,VWS V14.01,2013-11-04 08:19:00,
2013-11-04 03:24:00,30.1,20.5,30.39,North,10,1.0,1.0,67,0.00,,---,0.00,VWS V14.01,2013-11-04 08:24:00,
2013-11-04 03:29:00,30.0,20.4,30.40,North,4,0.0,1.0,67,0.00,,---,0.00,VWS V14.01,2013-11-04 08:29:00,
2013-11-04 03:34:00,30.0,20.0,30.40,North,0,0.0,1.0,66,0.00,,---,0.00,VWS V14.01,2013-11-04 08:34:00,
2013-11-04 03:39:00,30.0,20.0,30.40,North,6,0.0,2.0,66,0.00,,---,0.00,VWS V14.01,2013-11-04 08:39:00,
2013-11-04 03:45:00,30.0,20.0,30.41,NNW,347,0.0,2.0,66,0.00,,---,0.00,VWS V14.01,2013-11-04 08:45:00,
2013-11-04 03:50:00,29.8,19.8,30.41,North,359,0.0,2.0,66,0.00,,---,0.00,VWS V14.01,2013-11-04 08:50:00,
2013-11-04 03:55:00,29.8,19.8,30.41,North,349,0.0,2.0,66,0.00,,---,0.00,VWS V14.01,2013-11-04 08:55:00,
2013-11-04 04:00:00,29.7,19.8,30.41,North,8,0.0,0.0,66,0.00,,---,0.00,VWS V14.01,2013-11-04 09:00:00,
2013-11-04 04:05:00,29.7,19.8,30.41,North,359,0.0,0.0,66,0.00,,---,0.00,VWS V14.01,2013-11-04 09:05:00,
2013-11-04 04:10:00,29.7,19.8,30.41,North,6,5.0,5.0,66,0.00,,---,0.00,VWS V14.01,2013-11-04 09:10:00,
2013-11-04 04:15:00,29.5,19.6,30.42,North,0,0.0,5.0,66,0.00,,---,0.00,VWS V14.01,2013-11-04 09:15:00,
2013-11-04 04:20:00,29.5,19.6,30.42,North,4,0.0,5.0,66,0.00,,---,0.00,VWS V14.01,2013-11-04 09:20:00,
2013-11-04 04:26:00,29.5,19.6,30.42,North,1,0.0,5.0,66,0.00,,---,0.00,VWS V14.01,2013-11-04 09:26:00,
2013-11-04 04:31:00,29.5,19.6,30.43,North,0,0.0,5.0,66,0.00,,---,0.00,VWS V14.01,2013-11-04 09:31:00,
2013-11-04 04:36:00,29.4,19.5,30.43,North,0,0.0,5.0,66,0.00,,---,0.00,VWS V14.01,2013-11-04 09:36:00,
2013-11-04 04:41:00,29.4,19.5,30.43,NNE,16,0.0,5.0,66,0.00,,---,0.00,VWS V14.01,2013-11-04 09:41:00,
2013-11-04 04:46:00,29.4,19.5,30.44,North,6,0.0,5.0,66,0.00,,---,0.00,VWS V14.01,2013-11-04 09:46:00,
2013-11-04 04:51:00,29.4,19.5,30.44,North,356,0.0,5.0,66,0.00,,---,0.00,VWS V14.01,2013-11-04 09:51:00,
2013-11-04 04:56:00,29.3,19.4,30.44,North,359,0.0,5.0,66,0.00,,---,0.00,VWS V14.01,2013-11-04 09:56:00,
2013-11-04 05:00:00,29.5,20.6,30.48,NNE,14,0.0,6.0,69,0.00,,---,-99.99,VWS V14.01,2013-11-04 10:00:00,
2013-11-04 05:01:00,29.3,19.4,30.44,North,0,0.0,0.0,66,0.00,,---,0.00,VWS V14.01,2013-11-04 10:01:00,
2013-11-04 05:06:00,29.3,19.4,30.44,North,356,0.0,0.0,66,0.00,,---,0.00,VWS V14.01,2013-11-04 10:06:00,
2013-11-04 05:11:00,29.3,19.4,30.44,North,0,0.0,0.0,66,0.00,,---,0.00,VWS V14.01,2013-11-04 10:11:00,
2013-11-04 05:17:00,29.3,19.4,30.46,North,6,0.0,0.0,66,0.00,,---,0.00,VWS V14.01,2013-11-04 10:17:00,
2013-11-04 05:22:00,29.7,19.8,30.46,NNE,13,0.0,0.0,66,0.00,,---,0.00,VWS V14.01,2013-11-04 10:22:00,
2013-11-04 05:27:00,29.7,19.8,30.46,North,356,0.0,0.0,66,0.00,,---,0.00,VWS V14.01,2013-11-04 10:27:00,
2013-11-04 05:32:00,29.7,19.8,30.47,NNW,346,0.0,2.0,66,0.00,,---,0.00,VWS V14.01,2013-11-04 10:32:00,
2013-11-04 05:37:00,29.8,19.8,30.47,NNE,13,0.0,2.0,66,0.00,,---,0.00,VWS V14.01,2013-11-04 10:37:00,
2013-11-04 05:42:00,29.8,19.8,30.47,North,8,0.0,2.0,66,0.00,,---,0.00,VWS V14.01,2013-11-04 10:42:00,
2013-11-04 05:47:00,29.7,19.8,30.47,NE,44,0.0,2.0,66,0.00,,---,0.00,VWS V14.01,2013-11-04 10:47:00,
2013-11-04 05:52:00,29.7,19.8,30.47,North,8,2.0,2.0,66,0.00,,---,0.00,VWS V14.01,2013-11-04 10:52:00,
2013-11-04 05:57:00,29.5,20.6,30.47,NNE,18,0.0,5.0,69,0.00,,---,0.00,VWS V14.01,2013-11-04 10:57:00,
2013-11-04 06:00:00,29.1,20.2,30.50,North,11,0.0,5.0,69,0.00,,---,-99.99,VWS V14.01,2013-11-04 11:00:00,
2013-11-04 06:02:00,29.7,20.8,30.48,North,7,2.0,2.0,69,0.00,,---,0.00,VWS V14.01,2013-11-04 11:02:00,
2013-11-04 06:07:00,29.7,20.8,30.48,North,356,0.0,3.0,69,0.00,,---,0.00,VWS V14.01,2013-11-04 11:07:00,
2013-11-04 06:13:00,29.7,20.8,30.48,North,10,0.0,3.0,69,0.00,,---,0.00,VWS V14.01,2013-11-04 11:13:00,
2013-11-04 06:14:00,29.5,20.6,30.48,North,3,0.0,3.0,69,0.00,,---,0.00,VWS V14.01,2013-11-04 11:14:00,
2013-11-04 06:19:00,29.5,20.9,30.48,North,0,0.0,5.0,70,0.00,,---,0.00,VWS V14.01,2013-11-04 11:19:00,
2013-11-04 06:22:00,29.5,20.9,30.48,North,0,0.0,5.0,70,0.00,,---,0.00,VWS V14.01,2013-11-04 11:22:00,
2013-11-04 06:27:00,29.4,20.8,30.48,North,0,0.0,5.0,70,0.00,,---,0.00,VWS V14.01,2013-11-04 11:27:00,
2013-11-04 06:32:00,29.4,20.5,30.49,North,356,3.0,5.0,69,0.00,,---,0.00,VWS V14.01,2013-11-04 11:32:00,
2013-11-04 06:37:00,29.3,20.4,30.49,North,8,0.0,5.0,69,0.00,,---,0.00,VWS V14.01,2013-11-04 11:37:00,
2013-11-04 06:42:00,29.3,20.4,30.49,North,359,0.0,5.0,69,0.00,,---,0.00,VWS V14.01,2013-11-04 11:42:00,
2013-11-04 06:47:00,29.3,20.4,30.50,North,11,0.0,5.0,69,0.00,,---,0.00,VWS V14.01,2013-11-04 11:47:00,
2013-11-04 06:52:00,29.3,20.4,30.50,North,1,0.0,5.0,69,0.00,,---,0.00,VWS V14.01,2013-11-04 11:52:00,
2013-11-04 06:57:00,29.1,20.2,30.50,North,359,0.0,5.0,69,0.00,,---,0.00,VWS V14.01,2013-11-04 11:57:00,
2013-11-04 07:00:00,30.6,21.6,30.52,NW,318,0.0,10.0,69,0.00,,---,-99.99,VWS V14.01,2013-11-04 12:00:00,
2013-11-04 07:02:00,29.3,20.4,30.50,North,356,0.0,0.0,69,0.00,,---,0.00,VWS V14.01,2013-11-04 12:02:00,
2013-11-04 07:08:00,29.3,20.4,30.50,North,1,0.0,0.0,69,0.00,,---,0.00,VWS V14.01,2013-11-04 12:08:00,
2013-11-04 07:13:00,29.3,20.4,30.50,North,6,0.0,0.0,69,0.00,,---,0.00,VWS V14.01,2013-11-04 12:13:00,
2013-11-04 07:18:00,29.4,20.5,30.51,North,0,0.0,0.0,69,0.00,,---,0.00,VWS V14.01,2013-11-04 12:18:00,
2013-11-04 07:23:00,29.5,20.6,30.51,North,356,0.0,1.0,69,0.00,,---,0.00,VWS V14.01,2013-11-04 12:23:00,
2013-11-04 07:28:00,29.5,20.6,30.51,North,4,0.0,1.0,69,0.00,,---,0.00,VWS V14.01,2013-11-04 12:28:00,
2013-11-04 07:33:00,29.5,20.6,30.51,North,1,0.0,2.0,69,0.00,,---,0.00,VWS V14.01,2013-11-04 12:33:00,
2013-11-04 07:38:00,30.0,21.1,30.51,North,0,0.0,2.0,69,0.00,,---,0.00,VWS V14.01,2013-11-04 12:38:00,
2013-11-04 07:43:00,30.1,21.2,30.51,North,0,0.0,2.0,69,0.00,,---,0.00,VWS V14.01,2013-11-04 12:43:00,
2013-11-04 07:48:00,30.4,21.5,30.52,NE,34,0.0,10.0,69,0.00,,---,0.00,VWS V14.01,2013-11-04 12:48:00,
2013-11-04 07:53:00,30.6,21.6,30.52,NNW,339,0.0,10.0,69,0.00,,---,0.00,VWS V14.01,2013-11-04 12:53:00,
2013-11-04 07:59:00,30.6,21.6,30.52,North,356,1.0,10.0,69,0.00,,---,0.00,VWS V14.01,2013-11-04 12:59:00,
2013-11-04 08:00:00,33.7,21.3,30.52,NNE,32,5.0,8.0,60,0.00,,---,-99.99,VWS V14.01,2013-11-04 13:00:00,
2013-11-04 08:04:00,30.9,21.9,30.52,NNE,17,0.0,0.0,69,0.00,,---,0.00,VWS V14.01,2013-11-04 13:04:00,
2013-11-04 08:09:00,31.3,22.3,30.52,North,8,0.0,3.0,69,0.00,,---,0.00,VWS V14.01,2013-11-04 13:09:00,
2013-11-04 08:14:00,31.3,22.3,30.52,NE,40,0.0,8.0,69,0.00,,---,0.00,VWS V14.01,2013-11-04 13:14:00,
2013-11-04 08:19:00,31.3,19.0,30.52,North,0,0.0,8.0,60,0.00,,---,0.00,VWS V14.01,2013-11-04 13:19:00,
2013-11-04 08:24:00,32.4,20.1,30.52,North,359,0.0,8.0,60,0.00,,---,0.00,VWS V14.01,2013-11-04 13:24:00,
2013-11-04 08:29:00,32.7,20.4,30.52,North,350,0.0,8.0,60,0.00,,---,0.00,VWS V14.01,2013-11-04 13:29:00,
2013-11-04 08:34:00,32.7,20.4,30.52,North,359,1.0,8.0,60,0.00,,---,0.00,VWS V14.01,2013-11-04 13:34:00,
2013-11-04 08:39:00,32.7,20.4,30.52,North,0,0.0,8.0,60,0.00,,---,0.00,VWS V14.01,2013-11-04 13:39:00,
2013-11-04 08:44:00,32.7,20.4,30.52,North,0,0.0,8.0,60,0.00,,---,0.00,VWS V14.01,2013-11-04 13:44:00,
2013-11-04 08:49:00,32.7,20.4,30.52,North,0,0.0,8.0,60,0.00,,---,0.00,VWS V14.01,2013-11-04 13:49:00,
2013-11-04 08:54:00,32.7,20.4,30.52,North,0,0.0,8.0,60,0.00,,---,0.00,VWS V14.01,2013-11-04 13:54:00,
2013-11-04 09:00:00,33.7,21.3,30.52,NNW,336,0.0,5.0,60,0.00,,---,0.00,VWS V14.01,2013-11-04 14:00:00,
2013-11-04 09:05:00,33.7,21.3,30.52,NNW,336,0.0,5.0,60,0.00,,---,0.00,VWS V14.01,2013-11-04 14:05:00,
2013-11-04 09:10:00,34.0,21.6,30.52,NNE,25,5.0,5.0,60,0.00,,---,0.00,VWS V14.01,2013-11-04 14:10:00,
2013-11-04 09:15:00,34.0,20.8,30.52,NNE,23,0.0,5.0,58,0.00,,---,0.00,VWS V14.01,2013-11-04 14:15:00,
2013-11-04 09:20:00,34.0,20.8,30.52,North,359,5.0,5.0,58,0.00,,---,0.00,VWS V14.01,2013-11-04 14:20:00,
2013-11-04 09:25:00,34.0,20.8,30.52,NNE,27,0.0,5.0,58,0.00,,---,0.00,VWS V14.01,2013-11-04 14:25:00,
2013-11-04 09:30:00,35.0,20.9,30.52,North,1,0.0,5.0,56,0.00,,---,0.00,VWS V14.01,2013-11-04 14:30:00,
2013-11-04 09:35:00,35.6,21.5,30.52,North,0,5.0,5.0,56,0.00,,---,0.00,VWS V14.01,2013-11-04 14:35:00,
2013-11-04 09:40:00,35.8,21.6,30.52,West,281,0.0,5.0,56,0.00,,---,0.00,VWS V14.01,2013-11-04 14:40:00,
2013-11-04 09:45:00,35.8,21.6,30.53,NNW,340,0.0,5.0,56,0.00,,---,0.00,VWS V14.01,2013-11-04 14:45:00,
2013-11-04 09:51:00,35.8,21.6,30.53,East,86,0.0,5.0,56,0.00,,---,0.00,VWS V14.01,2013-11-04 14:51:00,
2013-11-04 09:56:00,35.8,20.8,30.53,NNE,13,1.0,5.0,54,0.00,,---,0.00,VWS V14.01,2013-11-04 14:56:00,
2013-11-04 10:00:00,37.6,22.0,30.52,North,350,5.0,7.0,53,0.00,,---,-99.99,VWS V14.01,2013-11-04 15:00:00,
2013-11-04 10:01:00,35.8,20.8,30.53,North,4,0.0,0.0,54,0.00,,---,0.00,VWS V14.01,2013-11-04 15:01:00,
2013-11-04 10:06:00,35.8,20.8,30.53,North,6,6.0,6.0,54,0.00,,---,0.00,VWS V14.01,2013-11-04 15:06:00,
2013-11-04 10:11:00,36.2,21.2,30.53,North,1,0.0,6.0,54,0.00,,---,0.00,VWS V14.01,2013-11-04 15:11:00,
2013-11-04 10:16:00,36.3,21.3,30.52,North,1,5.0,6.0,54,0.00,,---,0.00,VWS V14.01,2013-11-04 15:16:00,
2013-11-04 10:21:00,36.3,20.8,30.52,North,357,1.0,6.0,53,0.00,,---,0.00,VWS V14.01,2013-11-04 15:21:00,
2013-11-04 10:26:00,36.5,21.0,30.52,West,263,6.0,6.0,53,0.00,,---,0.00,VWS V14.01,2013-11-04 15:26:00,
2013-11-04 10:31:00,36.6,21.1,30.52,North,0,2.0,6.0,53,0.00,,---,0.00,VWS V14.01,2013-11-04 15:31:00,
2013-11-04 10:36:00,36.8,21.3,30.52,North,0,0.0,6.0,53,0.00,,---,0.00,VWS V14.01,2013-11-04 15:36:00,
2013-11-04 10:41:00,37.0,21.5,30.52,North,352,0.0,6.0,53,0.00,,---,0.00,VWS V14.01,2013-11-04 15:41:00,
2013-11-04 10:46:00,37.0,21.5,30.52,NNE,18,0.0,6.0,53,0.00,,---,0.00,VWS V14.01,2013-11-04 15:46:00,
2013-11-04 10:52:00,37.6,22.0,30.52,North,4,3.0,6.0,53,0.00,,---,0.00,VWS V14.01,2013-11-04 15:52:00,
2013-11-04 10:57:00,37.6,22.0,30.52,NE,34,0.0,7.0,53,0.00,,---,0.00,VWS V14.01,2013-11-04 15:57:00,
2013-11-04 11:00:00,38.8,20.8,30.52,North,3,0.0,10.0,48,0.00,,---,-99.99,VWS V14.01,2013-11-04 16:00:00,
2013-11-04 11:02:00,37.6,22.5,30.52,North,353,0.0,5.0,54,0.00,,---,0.00,VWS V14.01,2013-11-04 16:02:00,
2013-11-04 11:07:00,37.6,22.5,30.52,North,357,0.0,6.0,54,0.00,,---,0.00,VWS V14.01,2013-11-04 16:07:00,
2013-11-04 11:12:00,37.8,22.7,30.52,NNE,16,4.0,6.0,54,0.00,,---,0.00,VWS V14.01,2013-11-04 16:12:00,
2013-11-04 11:17:00,37.9,21.9,30.51,North,359,0.0,8.0,52,0.00,,---,0.00,VWS V14.01,2013-11-04 16:17:00,
2013-11-04 11:22:00,37.9,21.9,30.51,NNE,16,5.0,10.0,52,0.00,,---,0.00,VWS V14.01,2013-11-04 16:22:00,
2013-11-04 11:27:00,38.2,22.1,30.51,North,350,0.0,10.0,52,0.00,,---,0.00,VWS V14.01,2013-11-04 16:27:00,
2013-11-04 11:33:00,38.2,22.1,30.51,North,1,2.0,10.0,52,0.00,,---,0.00,VWS V14.01,2013-11-04 16:33:00,
2013-11-04 11:38:00,38.2,22.1,30.51,NNE,17,6.0,10.0,52,0.00,,---,0.00,VWS V14.01,2013-11-04 16:38:00,
2013-11-04 11:43:00,38.2,20.2,30.51,ENE,65,0.0,10.0,48,0.00,,---,0.00,VWS V14.01,2013-11-04 16:43:00,
2013-11-04 11:48:00,38.2,20.2,30.52,North,0,1.0,10.0,48,0.00,,---,0.00,VWS V14.01,2013-11-04 16:48:00,
2013-11-04 11:53:00,38.8,20.8,30.52,North,0,7.0,10.0,48,0.00,,---,0.00,VWS V14.01,2013-11-04 16:53:00,
2013-11-04 11:58:00,38.8,20.8,30.52,North,3,0.0,10.0,48,0.00,,---,0.00,VWS V14.01,2013-11-04 16:58:00,
2013-11-04 12:00:00,39.2,20.7,30.52,NNE,16,0.0,3.0,47,0.00,,---,-99.99,VWS V14.01,2013-11-04 17:00:00,
2013-11-04 12:03:00,39.1,21.1,30.52,North,6,0.0,0.0,48,0.00,,---,0.00,VWS V14.01,2013-11-04 17:03:00,
2013-11-04 12:08:00,39.1,21.1,30.52,North,356,1.0,1.0,48,0.00,,---,0.00,VWS V14.01,2013-11-04 17:08:00,
2013-11-04 12:13:00,39.1,21.1,30.51,North,354,1.0,2.0,48,0.00,,---,0.00,VWS V14.01,2013-11-04 17:13:00,
2013-11-04 12:18:00,39.2,21.2,30.51,NNE,25,0.0,2.0,48,0.00,,---,0.00,VWS V14.01,2013-11-04 17:18:00,
2013-11-04 12:23:00,39.2,21.2,30.51,North,3,2.0,2.0,48,0.00,,---,0.00,VWS V14.01,2013-11-04 17:23:00,
2013-11-04 12:29:00,39.5,21.5,30.52,NE,42,0.0,2.0,48,0.00,,---,0.00,VWS V14.01,2013-11-04 17:29:00,
2013-11-04 12:34:00,39.5,21.5,30.52,North,7,1.0,2.0,48,0.00,,---,0.00,VWS V14.01,2013-11-04 17:34:00,
2013-11-04 12:39:00,39.5,21.5,30.52,North,359,2.0,2.0,48,0.00,,---,0.00,VWS V14.01,2013-11-04 17:39:00,
2013-11-04 12:44:00,39.8,21.7,30.52,North,8,0.0,2.0,48,0.00,,---,0.00,VWS V14.01,2013-11-04 17:44:00,
2013-11-04 12:49:00,39.8,21.7,30.52,North,0,3.0,3.0,48,0.00,,---,0.00,VWS V14.01,2013-11-04 17:49:00,
2013-11-04 12:54:00,39.8,20.7,30.52,North,6,0.0,3.0,46,0.00,,---,0.00,VWS V14.01,2013-11-04 17:54:00,
2013-11-04 12:59:00,39.2,20.7,30.52,NNE,16,0.0,3.0,47,0.00,,---,0.00,VWS V14.01,2013-11-04 17:59:00,
2013-11-04 13:00:00,38.6,20.1,30.53,North,356,1.0,3.0,47,0.00,,---,-99.99,VWS V14.01,2013-11-04 18:00:00,
2013-11-04 13:04:00,39.1,20.6,30.52,North,0,0.0,0.0,47,0.00,,---,0.00,VWS V14.01,2013-11-04 18:04:00,
2013-11-04 13:09:00,39.1,20.6,30.52,North,0,0.0,0.0,47,0.00,,---,0.00,VWS V14.01,2013-11-04 18:09:00,
2013-11-04 13:14:00,39.1,20.6,30.53,North,0,0.0,0.0,47,0.00,,---,0.00,VWS V14.01,2013-11-04 18:14:00,
2013-11-04 13:19:00,38.8,20.3,30.53,North,1,0.0,0.0,47,0.00,,---,0.00,VWS V14.01,2013-11-04 18:19:00,
2013-11-04 13:24:00,38.8,20.3,30.53,North,350,3.0,3.0,47,0.00,,---,0.00,VWS V14.01,2013-11-04 18:24:00,
2013-11-04 13:30:00,38.5,20.0,30.52,NNW,339,0.0,3.0,47,0.00,,---,0.00,VWS V14.01,2013-11-04 18:30:00,
2013-11-04 13:35:00,38.5,20.0,30.52,NNE,16,0.0,3.0,47,0.00,,---,0.00,VWS V14.01,2013-11-04 18:35:00,
2013-11-04 13:40:00,38.5,20.0,30.52,North,349,0.0,3.0,47,0.00,,---,0.00,VWS V14.01,2013-11-04 18:40:00,
2013-11-04 13:45:00,38.5,20.0,30.53,North,10,2.0,3.0,47,0.00,,---,0.00,VWS V14.01,2013-11-04 18:45:00,
2013-11-04 13:50:00,38.5,20.0,30.53,North,7,0.0,3.0,47,0.00,,---,0.00,VWS V14.01,2013-11-04 18:50:00,
2013-11-04 13:55:00,38.6,20.1,30.53,NNW,330,1.0,3.0,47,0.00,,---,0.00,VWS V14.01,2013-11-04 18:55:00,
2013-11-04 14:00:00,38.6,20.1,30.53,North,356,1.0,1.0,47,0.00,,---,0.00,VWS V14.01,2013-11-04 19:00:00,
2013-11-04 14:05:00,38.8,20.3,30.53,North,357,0.0,1.0,47,0.00,,---,0.00,VWS V14.01,2013-11-04 19:05:00,
2013-11-04 14:10:00,38.5,20.0,30.53,North,4,0.0,1.0,47,0.00,,---,0.00,VWS V14.01,2013-11-04 19:10:00,
2013-11-04 14:15:00,38.5,20.0,30.53,North,1,5.0,5.0,47,0.00,,---,0.00,VWS V14.01,2013-11-04 19:15:00,
2013-11-04 14:21:00,38.5,20.0,30.53,NNE,13,0.0,5.0,47,0.00,,---,0.00,VWS V14.01,2013-11-04 19:21:00,
2013-11-04 14:26:00,38.5,21.5,30.53,NNE,18,0.0,5.0,50,0.00,,---,0.00,VWS V14.01,2013-11-04 19:26:00,
2013-11-04 14:31:00,38.5,21.5,30.53,NNE,18,0.0,5.0,50,0.00,,---,0.00,VWS V14.01,2013-11-04 19:31:00,
2013-11-04 14:36:00,38.5,21.5,30.53,NNW,329,0.0,5.0,50,0.00,,---,0.00,VWS V14.01,2013-11-04 19:36:00,
2013-11-04 14:41:00,38.5,21.5,30.53,ENE,64,0.0,5.0,50,0.00,,---,0.00,VWS V14.01,2013-11-04 19:41:00,
2013-11-04 14:46:00,38.5,21.5,30.53,North,7,0.0,5.0,50,0.00,,---,0.00,VWS V14.01,2013-11-04 19:46:00,
2013-11-04 14:51:00,38.5,21.5,30.53,North,356,2.0,5.0,50,0.00,,---,0.00,VWS V14.01,2013-11-04 19:51:00,
2013-11-04 14:56:00,38.5,22.4,30.53,NNW,336,2.0,5.0,52,0.00,,---,0.00,VWS V14.01,2013-11-04 19:56:00,
2013-11-04 15:00:00,37.3,21.8,30.56,North,6,0.0,1.0,53,0.00,,---,-99.99,VWS V14.01,2013-11-04 20:00:00,
2013-11-04 15:02:00,38.5,22.4,30.54,NNE,31,0.0,0.0,52,0.00,,---,0.00,VWS V14.01,2013-11-04 20:02:00,
2013-11-04 15:07:00,38.5,22.4,30.54,North,0,0.0,0.0,52,0.00,,---,0.00,VWS V14.01,2013-11-04 20:07:00,
2013-11-04 15:12:00,38.5,22.4,30.54,North,350,0.0,0.0,52,0.00,,---,0.00,VWS V14.01,2013-11-04 20:12:00,
2013-11-04 15:17:00,38.3,21.8,30.55,North,359,0.0,1.0,51,0.00,,---,0.00,VWS V14.01,2013-11-04 20:17:00,
2013-11-04 15:22:00,38.3,21.8,30.55,North,1,0.0,1.0,51,0.00,,---,0.00,VWS V14.01,2013-11-04 20:22:00,
2013-11-04 15:27:00,38.2,21.7,30.55,North,1,0.0,1.0,51,0.00,,---,0.00,VWS V14.01,2013-11-04 20:27:00,
2013-11-04 15:32:00,37.9,21.4,30.55,North,0,0.0,1.0,51,0.00,,---,0.00,VWS V14.01,2013-11-04 20:32:00,
2013-11-04 15:37:00,37.6,21.1,30.55,NE,48,0.0,1.0,51,0.00,,---,0.00,VWS V14.01,2013-11-04 20:37:00,
2013-11-04 15:42:00,37.6,21.1,30.55,North,3,0.0,1.0,51,0.00,,---,0.00,VWS V14.01,2013-11-04 20:42:00,
2013-11-04 15:47:00,37.5,21.0,30.55,North,4,0.0,1.0,51,0.00,,---,0.00,VWS V14.01,2013-11-04 20:47:00,
2013-11-04 15:52:00,37.3,20.9,30.55,NNE,24,0.0,1.0,51,0.00,,---,0.00,VWS V14.01,2013-11-04 20:52:00,
2013-11-04 15:57:00,37.3,21.8,30.55,NNE,14,0.0,1.0,53,0.00,,---,0.00,VWS V14.01,2013-11-04 20:57:00,
2013-11-04 16:00:00,34.9,21.6,30.58,North,0,0.0,0.0,58,0.00,,---,-99.99,VWS V14.01,2013-11-04 21:00:00,
2013-11-04 16:02:00,37.0,21.5,30.56,North,1,0.0,0.0,53,0.00,,---,0.00,VWS V14.01,2013-11-04 21:02:00,
2013-11-04 16:07:00,37.0,21.5,30.56,NW,304,0.0,0.0,53,0.00,,---,0.00,VWS V14.01,2013-11-04 21:07:00,
2013-11-04 16:12:00,37.0,22.4,30.56,North,6,0.0,0.0,55,0.00,,---,0.00,VWS V14.01,2013-11-04 21:12:00,
2013-11-04 16:17:00,36.5,21.9,30.56,North,0,0.0,0.0,55,0.00,,---,0.00,VWS V14.01,2013-11-04 21:17:00,
2013-11-04 16:22:00,36.5,21.9,30.56,North,0,0.0,0.0,55,0.00,,---,0.00,VWS V14.01,2013-11-04 21:22:00,
2013-11-04 16:27:00,36.0,21.4,30.56,North,0,0.0,0.0,55,0.00,,---,0.00,VWS V14.01,2013-11-04 21:27:00,
2013-11-04 16:32:00,35.9,21.3,30.57,North,0,0.0,0.0,55,0.00,,---,0.00,VWS V14.01,2013-11-04 21:32:00,
2013-11-04 16:37:00,35.9,22.6,30.57,North,0,0.0,0.0,58,0.00,,---,0.00,VWS V14.01,2013-11-04 21:37:00,
2013-11-04 16:42:00,35.5,22.2,30.57,North,0,0.0,0.0,58,0.00,,---,0.00,VWS V14.01,2013-11-04 21:42:00,
2013-11-04 16:47:00,35.5,22.2,30.58,North,0,0.0,0.0,58,0.00,,---,0.00,VWS V14.01,2013-11-04 21:47:00,
2013-11-04 16:52:00,35.0,21.7,30.58,North,0,0.0,0.0,58,0.00,,---,0.00,VWS V14.01,2013-11-04 21:52:00,
2013-11-04 16:57:00,34.9,21.6,30.58,North,0,0.0,0.0,58,0.00,,---,0.00,VWS V14.01,2013-11-04 21:57:00,
2013-11-04 17:00:00,34.1,22.1,30.59,North,359,0.0,0.0,61,0.00,,---,-99.99,VWS V14.01,2013-11-04 22:00:00,
2013-11-04 17:02:00,34.9,21.6,30.58,North,0,0.0,0.0,58,0.00,,---,0.00,VWS V14.01,2013-11-04 22:02:00,
2013-11-04 17:07:00,34.4,21.2,30.58,North,0,0.0,0.0,58,0.00,,---,0.00,VWS V14.01,2013-11-04 22:07:00,
2013-11-04 17:12:00,34.4,21.2,30.58,North,1,0.0,0.0,58,0.00,,---,0.00,VWS V14.01,2013-11-04 22:12:00,
2013-11-04 17:17:00,34.9,21.6,30.59,North,1,0.0,0.0,58,0.00,,---,0.00,VWS V14.01,2013-11-04 22:17:00,
2013-11-04 17:22:00,34.9,22.8,30.59,North,1,0.0,0.0,61,0.00,,---,0.00,VWS V14.01,2013-11-04 22:22:00,
2013-11-04 17:27:00,34.7,22.6,30.59,North,1,0.0,0.0,61,0.00,,---,0.00,VWS V14.01,2013-11-04 22:27:00,
2013-11-04 17:32:00,34.7,22.6,30.59,North,0,0.0,0.0,61,0.00,,---,0.00,VWS V14.01,2013-11-04 22:32:00,
2013-11-04 17:37:00,34.3,22.3,30.59,North,0,0.0,0.0,61,0.00,,---,0.00,VWS V14.01,2013-11-04 22:37:00,
2013-11-04 17:42:00,34.1,22.1,30.59,North,359,0.0,0.0,61,0.00,,---,0.00,VWS V14.01,2013-11-04 22:42:00,
2013-11-04 17:47:00,34.1,22.1,30.59,North,359,0.0,0.0,61,0.00,,---,0.00,VWS V14.01,2013-11-04 22:47:00,
2013-11-04 17:52:00,34.1,22.1,30.59,North,0,0.0,0.0,61,0.00,,---,0.00,VWS V14.01,2013-11-04 22:52:00,
2013-11-04 17:57:00,34.1,22.1,30.59,NNW,329,0.0,0.0,61,0.00,,---,0.00,VWS V14.01,2013-11-04 22:57:00,
2013-11-04 18:00:00,33.7,21.7,30.59,North,359,0.0,0.0,61,0.00,,---,-99.99,VWS V14.01,2013-11-04 23:00:00,
2013-11-04 18:02:00,34.1,22.1,30.59,North,359,0.0,0.0,61,0.00,,---,0.00,VWS V14.01,2013-11-04 23:02:00,
2013-11-04 18:07:00,34.1,22.1,30.59,North,359,0.0,0.0,61,0.00,,---,0.00,VWS V14.01,2013-11-04 23:07:00,
2013-11-04 18:12:00,34.0,22.0,30.59,North,0,0.0,0.0,61,0.00,,---,0.00,VWS V14.01,2013-11-04 23:12:00,
2013-11-04 18:17:00,34.0,22.0,30.58,North,0,0.0,0.0,61,0.00,,---,0.00,VWS V14.01,2013-11-04 23:17:00,
2013-11-04 18:22:00,34.0,22.0,30.58,North,0,0.0,0.0,61,0.00,,---,0.00,VWS V14.01,2013-11-04 23:22:00,
2013-11-04 18:27:00,33.8,21.8,30.58,NNE,13,0.0,0.0,61,0.00,,---,0.00,VWS V14.01,2013-11-04 23:27:00,
2013-11-04 18:32:00,33.8,21.8,30.59,NNE,13,0.0,0.0,61,0.00,,---,0.00,VWS V14.01,2013-11-04 23:32:00,
2013-11-04 18:37:00,33.8,21.8,30.59,North,359,0.0,0.0,61,0.00,,---,0.00,VWS V14.01,2013-11-04 23:37:00,
2013-11-04 18:42:00,33.8,21.8,30.59,North,359,0.0,0.0,61,0.00,,---,0.00,VWS V14.01,2013-11-04 23:42:00,
2013-11-04 18:47:00,33.8,21.8,30.59,North,359,0.0,0.0,61,0.00,,---,0.00,VWS V14.01,2013-11-04 23:47:00,
2013-11-04 18:52:00,33.8,21.8,30.59,North,359,0.0,0.0,61,0.00,,---,0.00,VWS V14.01,2013-11-04 23:52:00,
2013-11-04 18:57:00,33.7,21.7,30.59,North,359,0.0,0.0,61,0.00,,---,0.00,VWS V14.01,2013-11-04 23:57:00,
2013-11-04 19:00:00,32.4,21.6,30.60,North,359,0.0,0.0,64,0.00,,---,-99.99,VWS V14.01,2013-11-05 00:00:00,
2013-11-04 19:02:00,33.5,21.5,30.59,North,359,0.0,0.0,61,0.00,,---,0.00,VWS V14.01,2013-11-05 00:02:00,
2013-11-04 19:08:00,33.5,21.5,30.59,North,359,0.0,0.0,61,0.00,,---,0.00,VWS V14.01,2013-11-05 00:08:00,
2013-11-04 19:13:00,33.5,21.5,30.59,North,359,0.0,0.0,61,0.00,,---,0.00,VWS V14.01,2013-11-05 00:13:00,
2013-11-04 19:18:00,33.5,22.3,30.59,North,359,0.0,0.0,63,0.00,,---,0.00,VWS V14.01,2013-11-05 00:18:00,
2013-11-04 19:23:00,33.4,22.9,30.59,North,359,0.0,0.0,65,0.00,,---,0.00,VWS V14.01,2013-11-05 00:23:00,
2013-11-04 19:28:00,33.2,22.7,30.59,North,359,0.0,0.0,65,0.00,,---,0.00,VWS V14.01,2013-11-05 00:28:00,
2013-11-04 19:33:00,32.8,22.3,30.60,North,359,0.0,0.0,65,0.00,,---,0.00,VWS V14.01,2013-11-05 00:33:00,
2013-11-04 19:38:00,32.7,21.9,30.60,North,359,0.0,0.0,64,0.00,,---,0.00,VWS V14.01,2013-11-05 00:38:00,
2013-11-04 19:43:00,32.7,21.9,30.60,North,359,0.0,0.0,64,0.00,,---,0.00,VWS V14.01,2013-11-05 00:43:00,
2013-11-04 19:48:00,32.5,21.7,30.60,North,359,0.0,0.0,64,0.00,,---,0.00,VWS V14.01,2013-11-05 00:48:00,
2013-11-04 19:53:00,32.5,21.7,30.60,North,359,0.0,0.0,64,0.00,,---,0.00,VWS V14.01,2013-11-05 00:53:00,
2013-11-04 19:58:00,32.5,21.7,30.60,North,359,0.0,0.0,64,0.00,,---,0.00,VWS V14.01,2013-11-05 00:58:00,
2013-11-04 20:00:00,31.6,24.3,30.62,North,359,0.0,0.0,74,0.00,,---,-99.99,VWS V14.01,2013-11-05 01:00:00,
2013-11-04 20:03:00,32.4,21.6,30.60,North,359,0.0,0.0,64,0.00,,---,0.00,VWS V14.01,2013-11-05 01:03:00,
2013-11-04 20:08:00,32.1,21.3,30.60,North,359,0.0,0.0,64,0.00,,---,0.00,VWS V14.01,2013-11-05 01:08:00,
2013-11-04 20:13:00,31.9,24.6,30.60,North,359,0.0,0.0,74,0.00,,---,0.00,VWS V14.01,2013-11-05 01:13:00,
2013-11-04 20:18:00,31.9,24.6,30.61,North,359,0.0,0.0,74,0.00,,---,0.00,VWS V14.01,2013-11-05 01:18:00,
2013-11-04 20:23:00,31.9,24.6,30.61,North,359,0.0,0.0,74,0.00,,---,0.00,VWS V14.01,2013-11-05 01:23:00,
2013-11-04 20:28:00,31.9,24.6,30.62,North,359,0.0,0.0,74,0.00,,---,0.00,VWS V14.01,2013-11-05 01:28:00,
2013-11-04 20:33:00,31.8,24.5,30.62,North,359,0.0,0.0,74,0.00,,---,0.00,VWS V14.01,2013-11-05 01:33:00,
2013-11-04 20:38:00,31.8,24.5,30.62,North,359,0.0,0.0,74,0.00,,---,0.00,VWS V14.01,2013-11-05 01:38:00,
2013-11-04 20:43:00,31.5,24.2,30.61,North,359,0.0,0.0,74,0.00,,---,0.00,VWS V14.01,2013-11-05 01:43:00,
2013-11-04 20:48:00,31.6,24.3,30.61,North,359,0.0,0.0,74,0.00,,---,0.00,VWS V14.01,2013-11-05 01:48:00,
2013-11-04 20:53:00,31.6,24.3,30.61,North,359,0.0,0.0,74,0.00,,---,0.00,VWS V14.01,2013-11-05 01:53:00,
2013-11-04 20:58:00,31.6,24.3,30.62,North,359,0.0,0.0,74,0.00,,---,0.00,VWS V14.01,2013-11-05 01:58:00,
2013-11-04 21:00:00,31.9,24.6,30.62,North,359,0.0,0.0,74,0.00,,---,-99.99,VWS V14.01,2013-11-05 02:00:00,
2013-11-04 21:03:00,31.5,24.2,30.62,North,359,0.0,0.0,74,0.00,,---,0.00,VWS V14.01,2013-11-05 02:03:00,
2013-11-04 21:08:00,31.5,24.2,30.62,North,359,0.0,0.0,74,0.00,,---,0.00,VWS V14.01,2013-11-05 02:08:00,
2013-11-04 21:13:00,31.5,24.2,30.62,North,359,0.0,0.0,74,0.00,,---,0.00,VWS V14.01,2013-11-05 02:13:00,
2013-11-04 21:18:00,31.5,24.2,30.62,North,359,0.0,0.0,74,0.00,,---,0.00,VWS V14.01,2013-11-05 02:18:00,
2013-11-04 21:23:00,31.8,24.5,30.62,North,359,0.0,0.0,74,0.00,,---,0.00,VWS V14.01,2013-11-05 02:23:00,
2013-11-04 21:29:00,31.8,24.5,30.62,North,359,0.0,0.0,74,0.00,,---,0.00,VWS V14.01,2013-11-05 02:29:00,
2013-11-04 21:34:00,31.8,24.5,30.62,North,359,0.0,0.0,74,0.00,,---,0.00,VWS V14.01,2013-11-05 02:34:00,
2013-11-04 21:39:00,31.8,24.5,30.62,North,359,0.0,0.0,74,0.00,,---,0.00,VWS V14.01,2013-11-05 02:39:00,
2013-11-04 21:44:00,31.8,24.5,30.62,North,359,0.0,0.0,74,0.00,,---,0.00,VWS V14.01,2013-11-05 02:44:00,
2013-11-04 21:49:00,31.8,24.5,30.62,North,359,0.0,0.0,74,0.00,,---,0.00,VWS V14.01,2013-11-05 02:49:00,
2013-11-04 21:54:00,31.8,24.5,30.62,North,359,0.0,0.0,74,0.00,,---,0.00,VWS V14.01,2013-11-05 02:54:00,
2013-11-04 21:59:00,31.9,24.6,30.62,North,359,0.0,0.0,74,0.00,,---,0.00,VWS V14.01,2013-11-05 02:59:00,
2013-11-04 22:00:00,32.4,28.1,30.61,North,357,0.0,0.0,84,0.00,,---,-99.99,VWS V14.01,2013-11-05 03:00:00,
2013-11-04 22:04:00,31.9,24.6,30.62,North,359,0.0,0.0,74,0.00,,---,0.00,VWS V14.01,2013-11-05 03:04:00,
2013-11-04 22:09:00,32.1,24.8,30.62,North,359,0.0,0.0,74,0.00,,---,0.00,VWS V14.01,2013-11-05 03:09:00,
2013-11-04 22:14:00,32.1,24.8,30.62,North,359,0.0,0.0,74,0.00,,---,0.00,VWS V14.01,2013-11-05 03:14:00,
2013-11-04 22:19:00,32.1,24.8,30.62,North,359,0.0,0.0,74,0.00,,---,0.00,VWS V14.01,2013-11-05 03:19:00,
2013-11-04 22:24:00,32.1,27.5,30.62,North,359,0.0,0.0,83,0.00,,---,0.00,VWS V14.01,2013-11-05 03:24:00,
2013-11-04 22:29:00,32.1,27.5,30.62,North,359,0.0,0.0,83,0.00,,---,0.00,VWS V14.01,2013-11-05 03:29:00,
2013-11-04 22:34:00,32.1,27.5,30.62,North,359,0.0,0.0,83,0.00,,---,0.00,VWS V14.01,2013-11-05 03:34:00,
2013-11-04 22:39:00,32.1,27.8,30.62,North,359,0.0,0.0,84,0.00,,---,0.00,VWS V14.01,2013-11-05 03:39:00,
2013-11-04 22:44:00,32.1,27.8,30.61,North,359,0.0,0.0,84,0.00,,---,0.00,VWS V14.01,2013-11-05 03:44:00,
2013-11-04 22:49:00,32.1,27.8,30.61,North,359,0.0,0.0,84,0.00,,---,0.00,VWS V14.01,2013-11-05 03:49:00,
2013-11-04 22:54:00,32.1,27.8,30.61,North,359,0.0,0.0,84,0.00,,---,0.00,VWS V14.01,2013-11-05 03:54:00,
2013-11-04 22:59:00,32.4,28.1,30.61,North,357,0.0,0.0,84,0.00,,---,0.00,VWS V14.01,2013-11-05 03:59:00,
2013-11-04 23:00:00,33.2,28.9,30.62,North,357,0.0,0.0,84,0.00,,---,-99.99,VWS V14.01,2013-11-05 04:00:00,
2013-11-04 23:04:00,32.4,28.1,30.61,North,357,0.0,0.0,84,0.00,,---,0.00,VWS V14.01,2013-11-05 04:04:00,
2013-11-04 23:09:00,32.5,28.2,30.61,North,357,0.0,0.0,84,0.00,,---,0.00,VWS V14.01,2013-11-05 04:09:00,
2013-11-04 23:14:00,32.5,28.2,30.62,North,359,0.0,0.0,84,0.00,,---,0.00,VWS V14.01,2013-11-05 04:14:00,
2013-11-04 23:19:00,32.5,28.2,30.62,North,359,0.0,0.0,84,0.00,,---,0.00,VWS V14.01,2013-11-05 04:19:00,
2013-11-04 23:24:00,32.9,28.6,30.62,North,359,0.0,0.0,84,0.00,,---,0.00,VWS V14.01,2013-11-05 04:24:00,
2013-11-04 23:30:00,32.9,28.6,30.61,North,359,0.0,0.0,84,0.00,,---,0.00,VWS V14.01,2013-11-05 04:30:00,
2013-11-04 23:35:00,33.1,28.8,30.61,North,357,0.0,0.0,84,0.00,,---,0.00,VWS V14.01,2013-11-05 04:35:00,
2013-11-04 23:40:00,33.1,28.8,30.61,North,357,0.0,0.0,84,0.00,,---,0.00,VWS V14.01,2013-11-05 04:40:00,
2013-11-04 23:45:00,33.2,28.9,30.62,North,357,0.0,0.0,84,0.00,,---,0.00,VWS V14.01,2013-11-05 04:45:00,
2013-11-04 23:50:00,33.2,28.9,30.62,North,359,0.0,0.0,84,0.00,,---,0.00,VWS V14.01,2013-11-05 04:50:00,
2013-11-04 23:55:00,33.2,28.9,30.62,North,359,0.0,0.0,84,0.00,,---,0.00,VWS V14.01,2013-11-05 04:55:00,